Terminal Aerodrome Forecast
Issued by NWS Mt. Holly, NJ

Home | Current Version | Previous Version | Text Only | Print | Product List | Glossary On
Versions: 1 2 3 4 5 6 7 8 9 10 11 12 13 14 15 16 17 18 19 20 21 22 23 24 25 26 27 28 29 30 31 32 33 34 35 36 37 38 39 40 41 42 43 44 45 46 47 48 49
884
FTUS41 KPHI 102338
TAFABE
TAF
KABE 102338Z 1100/1124 27010KT P6SM BKN045
      TEMPO 1103/1106 3SM -SHSN OVC020
     FM111000 27010KT P6SM SCT045
     FM111400 28014G26KT P6SM BKN045
     FM112300 28010G20KT P6SM SCT045=

USA.gov is the U.S. government's official web portal to all federal, state and local government web resources and services.